Regional Weather Roundup
Issued by NWS

Home | Current Version | Previous Version | Graphics & Text | Print | Product List | Glossary On
Versions: 1 2 3 4 5 6 7 8 9 10 11 12 13 14 15 16 17 18 19 20 21 22 23 24 25 26 27 28 29 30 31 32 33 34 35 36 37 38 39 40 41 42 43 44 45 46 47 48 49 50
000
ASUS43 KBIS 262010
RWRND

NORTH DAKOTA REGIONAL WEATHER ROUNDUP
NATIONAL WEATHER SERVICE BISMARCK ND
300 PM CDT FRI AUG 26 2016

NOTE: "FAIR" INDICATES FEW OR NO CLOUDS BELOW 12,000 FEET WITH NO
SIGNIFICANT WEATHER AND/OR OBSTRUCTIONS TO VISIBILITY.


NDZ001>003-009>011-017-262100-
NORTHWEST NORTH DAKOTA

CITY           SKY/WX    TMP DP  RH WIND       PRES   REMARKS
WILLISTON      CLOUDY    77  38  24 SW12      29.96F
MINOT          CLOUDY    75  43  31 S14G24    29.97F
MINOT AFB      CLOUDY    75  42  30 W12       29.96F
$$

NDZ018>021-031>035-040>046-262100-
SOUTHWEST NORTH DAKOTA

CITY           SKY/WX    TMP DP  RH WIND       PRES   REMARKS
BISMARCK       SUNNY     72  48  42 S18G24    30.06F
DICKINSON      CLOUDY    63  49  60 S7        30.01F
GARRISON         N/A     62  54  74 W6        30.03R
HETTINGER ARPT RAIN      54  50  86 W22G28    30.10S FOG
$$

NDZ004>008-012>016-024-026-027-054-262100-
NORTHEAST NORTH DAKOTA

CITY           SKY/WX    TMP DP  RH WIND       PRES   REMARKS
GRAND FORKS    CLOUDY    76  52  43 S15       30.03F
GRND FRKS AFB  CLOUDY    76  51  41 SW10      30.03F
DEVILS LAKE    CLOUDY    72  49  44 SW14      30.04F
$$

NDZ022-023-025-028>030-036>039-047>053-262100-
SOUTHEAST NORTH DAKOTA

CITY           SKY/WX    TMP DP  RH WIND       PRES   REMARKS
FARGO          MOSUNNY   75  49  39 SW13      30.08F
JAMESTOWN      CLOUDY    68  52  56 SW10      30.08F
$$





USA.gov is the U.S. government's official web portal to all federal, state and local government web resources and services.